EW9273 Weather Reports


Display with metric or nautical units.
time (UTC)temp
F
wind
direction
speed
MPH
gust
MPH
rain 1hr
in
rain 24hr
in
rain mn
in
humidity
%
barometer
mb
20260904073537 80 163 2.0 5.0 0.00 0.00 0.00 77 1010.0
20260904073037 80 202 1.0 4.0 0.00 0.00 0.00 77 1009.9
20260904072536 80 161 1.0 6.0 0.00 0.00 0.00 77 1010.0
20260904072036 81 155 1.0 6.0 0.00 0.00 0.00 77 1010.0
20260904071534 81 147 1.0 6.0 0.00 0.00 0.00 77 1010.1
20260904071036 81 148 2.0 7.0 0.00 0.00 0.00 77 1010.2
20260904070534 81 134 2.0 7.0 0.00 0.00 0.00 76 1010.2
20260904070034 81 161 2.0 7.0 0.00 0.00 0.00 76 1010.2
20260904065532 81 148 1.0 5.0 0.00 0.00 0.00 76 1010.2
20260904065032 81 153 1.0 6.0 0.00 0.00 0.00 76 1010.1
20260904064532 81 149 2.0 6.0 0.00 0.00 0.00 76 1010.1
20260904064032 81 64 3.0 7.0 0.00 0.00 0.00 76 1010.2
20260904063532 81 145 2.0 7.0 0.00 0.00 0.00 76 1010.2
20260904063035 81 92 3.0 12.0 0.00 0.00 0.00 75 1010.3
20260904062529 81 132 5.0 12.0 0.00 0.00 0.00 75 1010.2
20260904062029 82 213 2.0 11.0 0.00 0.00 0.00 75 1010.2
20260904061529 82 135 2.0 10.0 0.00 0.00 0.00 75 1010.2
20260904061032 82 149 3.0 10.0 0.00 0.00 0.00 75 1010.3
20260904060529 82 123 4.0 8.0 0.00 0.00 0.00 75 1010.3
20260904060029 82 175 4.0 9.0 0.00 0.00 0.00 75 1010.4
20260904055528 82 128 3.0 9.0 0.00 0.00 0.00 75 1010.3
20260904055028 82 121 4.0 9.0 0.00 0.00 0.00 75 1010.3
20260904054527 82 187 2.0 10.0 0.00 0.00 0.00 75 1010.3
20260904054026 82 54 3.0 8.0 0.00 0.00 0.00 74 1010.3
20260904053526 82 161 3.0 9.0 0.00 0.00 0.00 74 1010.3
20260904053027 82 208 4.0 9.0 0.00 0.00 0.00 74 1010.3
20260904052527 82 142 2.0 9.0 0.00 0.00 0.00 74 1010.2
20260904052025 82 144 2.0 6.0 0.00 0.00 0.00 74 1010.2
20260904051523 82 58 2.0 10.0 0.00 0.00 0.00 74 1010.3
20260904051023 82 146 3.0 10.0 0.00 0.00 0.00 73 1010.2
20260904050523 82 152 2.0 7.0 0.00 0.00 0.00 73 1010.2
20260904050022 82 171 4.0 9.0 0.00 0.00 0.00 73 1010.2
20260904045522 82 136 3.0 9.0 0.00 0.00 0.00 73 1010.1
20260904045023 82 50 1.0 8.0 0.00 0.00 0.00 73 1010.1
20260904044521 82 116 2.0 8.0 0.00 0.00 0.00 73 1010.0
20260904044023 82 184 2.0 7.0 0.00 0.00 0.00 72 1009.9
20260904043520 83 132 2.0 5.0 0.00 0.00 0.00 72 1009.9
20260904043021 83 173 1.0 9.0 0.00 0.00 0.00 72 1010.0
20260904042520 83 179 2.0 9.0 0.00 0.00 0.00 72 1009.9
20260904042022 83 153 2.0 8.0 0.00 0.00 0.00 71 1009.9
20260904041519 83 182 3.0 10.0 0.00 0.00 0.00 71 1009.8
20260904041021 83 30 2.0 11.0 0.00 0.00 0.00 70 1009.9
20260904040519 84 129 1.0 12.0 0.00 0.00 0.00 69 1009.9
20260904040020 84 88 3.0 15.0 0.00 0.00 0.00 69 1009.8
20260904035519 84 131 4.0 15.0 0.00 0.00 0.00 68 1009.8
20260904035019 84 140 3.0 9.0 0.00 0.00 0.00 67 1009.8
20260904034520 84 123 4.0 9.0 0.00 0.00 0.00 66 1009.8
20260904034019 85 154 2.0 9.0 0.00 0.00 0.00 66 1009.7
20260904033521 85 70 3.0 9.0 0.00 0.00 0.00 65 1009.7
20260904033019 85 129 2.0 10.0 0.00 0.00 0.00 64 1009.7
20260904032519 85 107 2.0 10.0 0.00 0.00 0.00 64 1009.6
20260904032017 85 207 5.0 20.0 0.00 0.00 0.00 63 1009.5
20260904031517 85 132 2.0 20.0 0.00 0.00 0.00 63 1009.4
20260904031017 85 80 1.0 10.0 0.00 0.00 0.00 63 1009.3
20260904030517 85 93 1.0 8.0 0.00 0.00 0.00 63 1009.3
20260904030017 85 113 2.0 8.0 0.00 0.00 0.00 63 1009.2
20260904025517 86 111 1.0 6.0 0.00 0.00 0.00 63 1009.1
20260904025017 86 110 2.0 6.0 0.00 0.00 0.00 63 1009.0
20260904024517 86 126 1.0 7.0 0.00 0.00 0.00 62 1008.9
20260904024017 86 52 2.0 7.0 0.00 0.00 0.00 62 1009.0
20260904023520 86 78 1.0 8.0 0.00 0.00 0.00 62 1008.9
20260904023016 86 109 2.0 8.0 0.00 0.00 0.00 62 1008.8
20260904022517 86 94 2.0 9.0 0.00 0.00 0.00 62 1008.7
20260904022017 86 81 2.0 7.0 0.00 0.00 0.00 62 1008.6
20260904021523 86 176 2.0 8.0 0.00 0.00 0.00 61 1008.5
20260904021019 86 103 3.0 8.0 0.00 0.00 0.00 61 1008.4
20260904020518 86 117 2.0 9.0 0.00 0.00 0.00 61 1008.3
20260904020016 86 109 2.0 9.0 0.00 0.00 0.00 61 1008.3
20260904015518 86 98 3.0 8.0 0.00 0.00 0.00 61 1008.1
20260904015019 86 61 2.0 7.0 0.00 0.00 0.00 60 1007.9
20260904014517 86 104 3.0 8.0 0.00 0.00 0.00 60 1008.0
20260904014017 87 101 3.0 8.0 0.00 0.00 0.00 59 1007.9
20260904013516 87 94 2.0 4.0 0.00 0.00 0.00 58 1008.0
20260904013014 87 145 1.0 8.0 0.00 0.00 0.00 57 1007.9
20260904012514 87 117 2.0 10.0 0.00 0.00 0.00 57 1007.8
20260904012014 87 106 2.0 10.0 0.00 0.00 0.00 57 1007.8
20260904011518 87 85 3.0 8.0 0.00 0.00 0.00 56 1007.7
20260904011013 87 103 2.0 12.0 0.00 0.00 0.00 56 1007.6
20260904010513 88 74 3.0 16.0 0.00 0.00 0.00 56 1007.6
20260904010016 88 88 7.0 17.0 0.00 0.00 0.00 56 1007.5
20260904005512 88 107 4.0 17.0 0.00 0.00 0.00 56 1007.3
20260904005012 88 135 6.0 14.0 0.00 0.00 0.00 55 1007.3
20260904004512 89 49 6.0 14.0 0.00 0.00 0.00 55 1007.3
20260904004012 89 84 2.0 19.0 0.00 0.00 0.00 55 1007.3
20260904003513 90 95 8.0 19.0 0.00 0.00 0.00 55 1007.2
20260904003020 90 93 8.0 17.0 0.00 0.00 0.00 54 1007.2
20260904002511 91 73 8.0 17.0 0.00 0.00 0.00 53 1007.0
20260904002011 92 96 6.0 19.0 0.00 0.00 0.00 52 1007.0
20260904001515 92 110 9.0 21.0 0.00 0.00 0.00 52 1007.1
20260904001011 93 90 11.0 22.0 0.00 0.00 0.00 49 1007.0
20260904000510 94 76 11.0 22.0 0.00 0.00 0.00 47 1006.7
20260904000011 94 76 12.0 22.0 0.00 0.00 0.00 46 1006.7
20260903235509 95 62 8.0 14.0 0.00 0.00 0.00 46 1006.5
20260903235010 95 79 3.0 16.0 0.00 0.00 0.00 47 1006.5
20260903234511 95 28 9.0 16.0 0.00 0.00 0.00 46 1006.5
20260903234009 95 67 6.0 15.0 0.00 0.00 0.00 46 1006.6
20260903233612 95 53 6.0 14.0 0.00 0.00 0.00 46 1006.5
20260903233008 95 82 8.0 15.0 0.00 0.00 0.00 46 1006.4
20260903232509 96 44 7.0 17.0 0.00 0.00 0.00 45 1006.4
20260903232008 96 58 9.0 17.0 0.00 0.00 0.00 44 1006.3
20260903231522 97 360 7.0 16.0 0.00 0.00 0.00 42 1006.3
20260903231008 98 84 5.0 10.0 0.00 0.00 0.00 41 1006.3
20260903230511 98 19 5.0 12.0 0.00 0.00 0.00 40 1006.2
20260903230007 98 89 6.0 15.0 0.00 0.00 0.00 41 1006.2
20260903225507 98 335 8.0 15.0 0.00 0.00 0.00 41 1006.1
20260903225007 99 44 8.0 14.0 0.00 0.00 0.00 40 1006.1
20260903224523 100 11 4.0 11.0 0.00 0.00 0.00 39 1006.1
20260903224006 100 71 4.0 13.0 0.00 0.00 0.00 39 1006.1
20260903223506 101 87 2.0 11.0 0.00 0.00 0.00 37 1006.1
20260903223009 101 223 3.0 8.0 0.00 0.00 0.00 37 1006.1
20260903222504 100 112 3.0 9.0 0.00 0.00 0.00 38 1006.1
20260903222004 100 36 3.0 9.0 0.00 0.00 0.00 37 1006.1
20260903221506 100 61 4.0 9.0 0.00 0.00 0.00 37 1006.1
20260903221005 101 123 2.0 12.0 0.00 0.00 0.00 37 1006.2
20260903220503 101 26 3.0 12.0 0.00 0.00 0.00 37 1006.2
20260903220003 101 118 3.0 7.0 0.00 0.00 0.00 37 1006.2
20260903215503 101 38 1.0 9.0 0.00 0.00 0.00 37 1006.3
20260903215002 102 106 4.0 9.0 0.00 0.00 0.00 36 1006.3
20260903214501 102 132 0.0 6.0 0.00 0.00 0.00 36 1006.3
20260903214001 102 146 3.0 11.0 0.00 0.00 0.00 35 1006.4
20260903213501 102 57 4.0 11.0 0.00 0.00 0.00 36 1006.4
20260903213111 103 90 2.0 8.0 0.00 0.00 0.00 35 1006.5
20260903212601 102 147 2.0 8.0 0.00 0.00 0.00 36 1006.5
20260903212059 102 317 2.0 6.0 0.00 0.00 0.00 37 1006.4
20260903211606 101 18 1.0 9.0 0.00 0.00 0.00 38 1006.6
20260903211057 101 90 4.0 10.0 0.00 0.00 0.00 37 1006.7
20260903210556 102 90 2.0 10.0 0.00 0.00 0.00 36 1006.8
20260903210125 102 86 3.0 11.0 0.00 0.00 0.00 37 1006.9
20260903205556 102 70 3.0 11.0 0.00 0.00 0.00 38 1006.8
20260903205054 102 163 2.0 10.0 0.00 0.00 0.00 38 1007.0
20260903204558 101 184 0.0 8.0 0.00 0.00 0.00 39 1007.0
20260903204058 101 126 4.0 7.0 0.00 0.00 0.00 38 1007.1
20260903203552 102 175 1.0 7.0 0.00 0.00 0.00 39 1007.2
20260903203108 102 98 2.0 7.0 0.00 0.00 0.00 38 1007.3
20260903202554 102 153 3.0 8.0 0.00 0.00 0.00 39 1007.3
20260903202049 102 121 2.0 8.0 0.00 0.00 0.00 39 1007.3
20260903201549 101 150 3.0 9.0 0.00 0.00 0.00 40 1007.5
20260903201046 101 210 4.0 9.0 0.00 0.00 0.00 40 1007.5
20260903200545 100 230 2.0 8.0 0.00 0.00 0.00 40 1007.5
20260903200052 100 148 3.0 11.0 0.00 0.00 0.00 41 1007.6
20260903195548 99 128 3.0 11.0 0.00 0.00 0.00 41 1007.6
20260903195043 99 109 2.0 9.0 0.00 0.00 0.00 42 1007.7
20260903194543 98 318 2.0 7.0 0.00 0.00 0.00 42 1007.7
20260903194042 99 134 2.0 7.0 0.00 0.00 0.00 42 1007.8
20260903193542 99 157 2.0 8.0 0.00 0.00 0.00 41 1007.9
20260903193041 100 148 2.0 8.0 0.00 0.00 0.00 41 1008.0
20260903192541 99 110 3.0 9.0 0.00 0.00 0.00 41 1008.0
20260903192041 99 107 1.0 8.0 0.00 0.00 0.00 42 1008.1
20260903191541 99 163 2.0 9.0 0.00 0.00 0.00 42 1008.2
20260903191038 98 92 2.0 11.0 0.00 0.00 0.00 43 1008.2
20260903190536 99 360 3.0 11.0 0.00 0.00 0.00 44 1008.4
20260903190036 99 194 3.0 8.0 0.00 0.00 0.00 44 1008.5
20260903185536 98 202 3.0 8.0 0.00 0.00 0.00 44 1008.6
20260903185034 98 165 1.0 7.0 0.00 0.00 0.00 45 1008.7
20260903184532 97 149 2.0 7.0 0.00 0.00 0.00 47 1008.7
20260903184033 96 146 1.0 10.0 0.00 0.00 0.00 48 1008.9
20260903183532 96 149 6.0 10.0 0.00 0.00 0.00 47 1009.0
20260903183031 97 189 3.0 10.0 0.00 0.00 0.00 46 1009.1
20260903182529 97 138 5.0 10.0 0.00 0.00 0.00 46 1009.1
20260903182029 96 214 2.0 8.0 0.00 0.00 0.00 48 1009.2
20260903181528 96 45 3.0 12.0 0.00 0.00 0.00 49 1009.3
20260903181026 96 141 5.0 12.0 0.00 0.00 0.00 48 1009.4
20260903180525 95 137 5.0 10.0 0.00 0.00 0.00 48 1009.5
20260903180027 95 121 3.0 13.0 0.00 0.00 0.00 50 1009.5
20260903175523 95 236 5.0 13.0 0.00 0.00 0.00 50 1009.6
20260903175023 95 76 2.0 10.0 0.00 0.00 0.00 52 1009.5
20260903174522 94 170 4.0 10.0 0.00 0.00 0.00 52 1009.8
20260903174019 93 154 3.0 8.0 0.00 0.00 0.00 53 1009.8
20260903173519 94 159 4.0 9.0 0.00 0.00 0.00 53 1009.9
20260903173018 94 132 3.0 9.0 0.00 0.00 0.00 52 1010.0
20260903172516 94 157 2.0 7.0 0.00 0.00 0.00 54 1010.1
20260903172015 93 147 2.0 12.0 0.00 0.00 0.00 55 1010.2
20260903171514 92 198 6.0 12.0 0.00 0.00 0.00 55 1010.3
20260903171013 92 176 2.0 12.0 0.00 0.00 0.00 55 1010.4
20260903170512 92 145 7.0 12.0 0.00 0.00 0.00 55 1010.5
20260903170011 92 85 4.0 9.0 0.00 0.00 0.00 57 1010.5
20260903165510 92 148 4.0 10.0 0.00 0.00 0.00 57 1010.5
20260903165008 92 243 4.0 11.0 0.00 0.00 0.00 57 1010.5
20260903164507 91 122 2.0 12.0 0.00 0.00 0.00 58 1010.6
20260903164009 91 184 6.0 10.0 0.00 0.00 0.00 59 1010.6
20260903163505 91 109 4.0 11.0 0.00 0.00 0.00 59 1010.6
20260903163004 90 171 6.0 11.0 0.00 0.00 0.00 59 1010.6
20260903162504 90 219 3.0 15.0 0.00 0.00 0.00 61 1010.7
20260903162002 89 217 5.0 15.0 0.00 0.00 0.00 61 1010.8
20260903161501 89 153 7.0 11.0 0.00 0.00 0.00 61 1010.8
20260903161059 89 125 4.0 11.0 0.00 0.00 0.00 62 1010.8
20260903160558 89 223 3.0 9.0 0.00 0.00 0.00 64 1010.7
20260903160126 88 211 3.0 11.0 0.00 0.00 0.00 64 1010.7
20260903155557 88 156 4.0 11.0 0.00 0.00 0.00 65 1010.7
20260903155056 88 216 4.0 11.0 0.00 0.00 0.00 65 1010.8
20260903154607 88 196 5.0 11.0 0.00 0.00 0.00 64 1010.8
20260903154055 87 132 3.0 10.0 0.00 0.00 0.00 66 1010.7
20260903153551 87 173 4.0 10.0 0.00 0.00 0.00 67 1010.7
20260903153051 87 212 3.0 10.0 0.00 0.00 0.00 67 1010.7
20260903152549 86 196 4.0 11.0 0.00 0.00 0.00 68 1010.6
20260903152048 85 227 4.0 12.0 0.00 0.00 0.00 69 1010.7
20260903151546 86 165 6.0 12.0 0.00 0.00 0.00 68 1010.8
20260903151046 86 123 4.0 9.0 0.00 0.00 0.00 70 1010.8
20260903150545 85 239 3.0 10.0 0.00 0.00 0.00 71 1010.7
20260903150044 85 215 6.0 14.0 0.00 0.00 0.00 71 1010.7
20260903145546 85 173 5.0 13.0 0.00 0.00 0.00 71 1010.7
20260903145042 84 136 6.0 13.0 0.00 0.00 0.00 71 1010.8
20260903144542 84 121 4.0 13.0 0.00 0.00 0.00 71 1010.8
20260903144042 84 114 3.0 9.0 0.00 0.00 0.00 72 1010.9
20260903143540 84 235 3.0 8.0 0.00 0.00 0.00 73 1010.8
20260903143052 83 209 3.0 8.0 0.00 0.00 0.00 74 1010.8
20260903142539 83 225 2.0 9.0 0.00 0.00 0.00 75 1010.8
20260903142037 83 213 3.0 7.0 0.00 0.00 0.00 75 1010.8
20260903141554 83 113 3.0 8.0 0.00 0.00 0.00 75 1010.9
20260903141038 82 243 4.0 10.0 0.00 0.00 0.00 75 1010.9
20260903140537 82 188 3.0 11.0 0.00 0.00 0.00 76 1010.9
20260903140039 82 221 5.0 11.0 0.00 0.00 0.00 77 1010.9
20260903135535 81 142 5.0 13.0 0.00 0.00 0.00 77 1010.9
20260903135035 81 244 5.0 13.0 0.00 0.00 0.00 77 1010.9
20260903134537 81 132 5.0 10.0 0.00 0.00 0.00 77 1010.9
20260903134134 81 212 4.0 9.0 0.00 0.00 0.00 78 1010.9
20260903133534 81 207 2.0 7.0 0.00 0.00 0.00 78 1011.0
20260903133035 81 232 4.0 7.0 0.00 0.00 0.00 78 1011.1
20260903132533 81 149 1.0 8.0 0.00 0.00 0.00 78 1011.1
20260903132030 81 200 3.0 10.0 0.00 0.00 0.00 78 1011.1
20260903131538 81 151 5.0 11.0 0.00 0.00 0.00 78 1011.0
20260903131030 81 229 5.0 11.0 0.00 0.00 0.00 78 1011.0
20260903130533 81 152 3.0 7.0 0.00 0.00 0.00 78 1011.0
20260903130035 81 142 3.0 7.0 0.00 0.00 0.00 78 1010.9
20260903125528 80 184 4.0 9.0 0.00 0.00 0.00 78 1010.9
20260903125028 80 92 1.0 8.0 0.00 0.00 0.00 78 1010.9
20260903124526 80 160 2.0 8.0 0.00 0.00 0.00 78 1010.8
20260903124025 80 162 2.0 7.0 0.00 0.00 0.00 78 1010.8
20260903123526 80 163 2.0 7.0 0.00 0.00 0.00 78 1010.7
20260903123032 80 172 2.0 9.0 0.00 0.00 0.00 78 1010.7
20260903122524 80 136 4.0 9.0 0.00 0.00 0.00 78 1010.7
20260903122022 80 190 3.0 8.0 0.00 0.00 0.00 78 1010.6
20260903121522 81 146 3.0 9.0 0.00 0.00 0.00 78 1010.5
20260903121022 80 160 4.0 9.0 0.00 0.00 0.00 78 1010.5
20260903120522 81 134 4.0 10.0 0.00 0.00 0.00 78 1010.5
20260903120022 81 207 4.0 9.0 0.00 0.00 0.00 78 1010.5
20260903115523 81 156 3.0 9.0 0.00 0.00 0.00 78 1010.4
20260903115021 81 144 4.0 12.0 0.00 0.00 0.00 78 1010.4
20260903114521 81 144 4.0 12.0 0.00 0.00 0.00 78 1010.3
20260903114020 81 213 5.0 11.0 0.00 0.00 0.00 78 1010.3
20260903113520 81 196 2.0 10.0 0.00 0.00 0.00 78 1010.3
20260903113027 81 213 2.0 10.0 0.00 0.00 0.00 78 1010.3
20260903112520 81 186 3.0 8.0 0.00 0.00 0.00 78 1010.3
20260903112023 81 137 2.0 9.0 0.00 0.00 0.00 78 1010.3
20260903111528 81 223 3.0 9.0 0.00 0.00 0.00 78 1010.3
20260903111019 81 171 3.0 8.0 0.00 0.00 0.00 78 1010.2
20260903110519 81 165 2.0 9.0 0.00 0.00 0.00 78 1010.2
20260903110018 81 148 3.0 9.0 0.00 0.00 0.00 78 1010.2
20260903105520 81 117 4.0 10.0 0.00 0.00 0.00 78 1010.2
20260903105022 81 130 3.0 10.0 0.00 0.00 0.00 78 1010.2
20260903104518 81 153 1.0 5.0 0.00 0.00 0.00 78 1010.3
20260903104018 81 193 3.0 10.0 0.00 0.00 0.00 78 1010.3
20260903103518 81 161 2.0 10.0 0.00 0.00 0.00 78 1010.3
20260903103018 81 192 4.0 10.0 0.00 0.00 0.00 78 1010.2
20260903102518 81 153 3.0 9.0 0.00 0.00 0.00 78 1010.3
20260903102019 81 172 2.0 11.0 0.00 0.00 0.00 78 1010.3
20260903101533 81 150 3.0 11.0 0.00 0.00 0.00 78 1010.2
20260903101017 81 175 3.0 9.0 0.00 0.00 0.00 78 1010.3
20260903100517 81 161 2.0 10.0 0.00 0.00 0.00 78 1010.2
20260903100017 81 190 4.0 10.0 0.00 0.00 0.00 78 1010.2
20260903095516 81 159 3.0 7.0 0.00 0.00 0.00 79 1010.3
20260903095017 81 135 3.0 7.0 0.00 0.00 0.00 79 1010.3
20260903094516 81 207 2.0 8.0 0.00 0.00 0.00 79 1010.4
20260903094017 81 161 4.0 8.0 0.00 0.00 0.00 79 1010.3
20260903093516 81 180 3.0 9.0 0.00 0.00 0.00 79 1010.2
20260903093016 81 195 2.0 6.0 0.00 0.00 0.00 79 1010.2
20260903092519 81 187 2.0 8.0 0.00 0.00 0.00 79 1010.2
20260903092015 81 144 3.0 7.0 0.00 0.00 0.00 79 1010.2
20260903091516 81 118 2.0 6.0 0.00 0.00 0.00 79 1010.2
20260903091014 81 161 2.0 5.0 0.00 0.00 0.00 79 1010.3
20260903090515 81 162 0.0 6.0 0.00 0.00 0.00 79 1010.3
20260903090015 81 159 2.0 5.0 0.00 0.00 0.00 79 1010.3
20260903085514 81 192 2.0 8.0 0.00 0.00 0.00 79 1010.3
20260903085014 81 132 2.0 8.0 0.00 0.00 0.00 79 1010.3
20260903084513 81 136 1.0 8.0 0.00 0.00 0.00 79 1010.3
20260903084013 81 138 2.0 8.0 0.00 0.00 0.00 79 1010.2
20260903083514 81 160 3.0 9.0 0.00 0.00 0.00 79 1010.2
20260903083022 81 146 4.0 9.0 0.00 0.00 0.00 79 1010.1
20260903082513 81 173 3.0 9.0 0.00 0.00 0.00 79 1010.1
20260903082012 81 120 3.0 10.0 0.00 0.00 0.00 79 1010.2
20260903081524 81 177 3.0 9.0 0.00 0.00 0.00 79 1010.3
20260903081011 81 161 3.0 6.0 0.00 0.00 0.00 78 1010.4
20260903080517 81 142 3.0 6.0 0.00 0.00 0.00 78 1010.4
20260903080011 81 134 2.0 6.0 0.00 0.00 0.00 78 1010.4
20260903075515 81 179 2.0 6.0 0.00 0.00 0.00 78 1010.3
20260903075010 81 146 1.0 6.0 0.00 0.00 0.00 78 1010.3
20260903074510 81 135 0.0 5.0 0.00 0.00 0.00 78 1010.3